CW1439 Weather Reports


Display with metric or nautical units.
time (UTC)temp
F
wind
direction
speed
MPH
gust
MPH
rain 1hr
in
rain 24hr
in
rain mn
in
humidity
%
barometer
mb
20260506001845 75 228 0.0 4.0 0.00 0.00 0.00 40 1007.3
20260506001342 75 206 1.0 6.0 0.00 0.00 0.00 40 1007.3
20260506000855 75 260 0.0 8.0 0.00 0.00 0.00 39 1007.3
20260506000411 76 226 2.0 11.0 0.00 0.00 0.00 38 1007.2
20260505235845 76 250 3.0 11.0 0.00 0.00 0.00 38 1007.2
20260505235340 76 236 0.0 9.0 0.00 0.00 0.00 38 1007.1
20260505234916 76 223 5.0 11.0 0.00 0.00 0.00 37 1007.0
20260505234351 77 238 4.0 11.0 0.00 0.00 0.00 38 1007.0
20260505233849 77 283 4.0 13.0 0.00 0.00 0.00 37 1007.1
20260505233345 77 236 5.0 14.0 0.00 0.00 0.00 38 1007.0
20260505232859 77 228 6.0 14.0 0.00 0.00 0.00 37 1006.9
20260505232354 77 219 1.0 11.0 0.00 0.00 0.00 38 1007.0
20260505231849 77 242 2.0 12.0 0.00 0.00 0.00 38 1006.9
20260505231347 78 243 4.0 12.0 0.00 0.00 0.00 38 1006.8
20260505230843 78 214 2.0 11.0 0.00 0.00 0.00 38 1006.8
20260505230401 78 235 3.0 8.0 0.00 0.00 0.00 39 1006.8
20260505225855 78 242 3.0 11.0 0.00 0.00 0.00 39 1006.8
20260505225506 79 234 0.0 11.0 0.00 0.00 0.00 39 1006.7
20260505224850 79 240 2.0 10.0 0.00 0.00 0.00 38 1006.7
20260505224348 79 226 1.0 12.0 0.00 0.00 0.00 39 1006.6
20260505223844 80 208 7.0 17.0 0.00 0.00 0.00 38 1006.7
20260505223340 80 239 8.0 17.0 0.00 0.00 0.00 36 1006.7
20260505222915 81 280 2.0 11.0 0.00 0.00 0.00 39 1006.8
20260505222350 81 245 4.0 11.0 0.00 0.00 0.00 38 1006.8
20260505221850 80 248 4.0 14.0 0.00 0.00 0.00 38 1006.8
20260505221348 80 219 4.0 14.0 0.00 0.00 0.00 39 1006.9
20260505220845 79 253 5.0 14.0 0.00 0.00 0.00 38 1006.9
20260505220342 80 201 6.0 14.0 0.00 0.00 0.00 38 1006.9
20260505215836 80 239 8.0 14.0 0.00 0.00 0.00 38 1006.8
20260505215353 80 239 6.0 18.0 0.00 0.00 0.00 38 1006.8
20260505214909 81 262 9.0 18.0 0.00 0.00 0.00 37 1006.8
20260505214343 81 119 5.0 20.0 0.00 0.00 0.00 38 1006.6
20260505213839 81 236 8.0 20.0 0.00 0.00 0.00 37 1006.6
20260505213356 82 228 2.0 16.0 0.00 0.00 0.00 37 1006.6
20260505212849 82 236 7.0 15.0 0.00 0.00 0.00 35 1006.6
20260505212345 82 201 6.0 14.0 0.00 0.00 0.00 36 1006.6
20260505211841 82 217 6.0 18.0 0.00 0.00 0.00 36 1006.6
20260505211338 81 240 10.0 18.0 0.00 0.00 0.00 36 1006.6
20260505210854 81 233 8.0 19.0 0.00 0.00 0.00 36 1006.5
20260505210353 82 250 9.0 21.0 0.00 0.00 0.00 36 1006.7
20260505205845 82 217 3.0 21.0 0.00 0.00 0.00 37 1006.6
20260505205345 82 297 5.0 21.0 0.00 0.00 0.00 37 1006.6
20260505204840 82 224 9.0 17.0 0.00 0.00 0.00 37 1006.5
20260505204338 81 278 5.0 17.0 0.00 0.00 0.00 38 1006.6
20260505203855 81 235 6.0 22.0 0.00 0.00 0.00 38 1006.6
20260505203352 81 224 9.0 22.0 0.00 0.00 0.00 38 1006.7
20260505202849 81 224 6.0 17.0 0.00 0.00 0.00 38 1006.6
20260505202344 81 233 8.0 17.0 0.00 0.00 0.00 38 1006.6
20260505201859 81 255 5.0 19.0 0.00 0.00 0.00 40 1006.8
20260505201416 81 225 7.0 19.0 0.00 0.00 0.00 39 1006.8
20260505200852 82 290 7.0 17.0 0.00 0.00 0.00 39 1006.7
20260505200349 82 239 7.0 17.0 0.00 0.00 0.00 39 1006.8
20260505195843 82 236 6.0 24.0 0.00 0.00 0.00 40 1006.8
20260505195340 82 194 7.0 24.0 0.00 0.00 0.00 39 1006.9
20260505194915 81 242 9.0 16.0 0.00 0.00 0.00 39 1006.9
20260505194351 81 239 7.0 16.0 0.00 0.00 0.00 38 1007.0
20260505193849 81 240 6.0 17.0 0.00 0.00 0.00 39 1006.9
20260505193345 81 248 8.0 16.0 0.00 0.00 0.00 39 1007.0
20260505192839 81 242 11.0 15.0 0.00 0.00 0.00 38 1007.2
20260505192356 82 359 4.0 15.0 0.00 0.00 0.00 39 1007.2
20260505191853 81 257 7.0 20.0 0.00 0.00 0.00 38 1007.2
20260505191354 81 128 9.0 20.0 0.00 0.00 0.00 39 1007.2
20260505190852 81 248 6.0 17.0 0.00 0.00 0.00 39 1007.3
20260505190348 81 217 9.0 20.0 0.00 0.00 0.00 38 1007.4
20260505185844 81 259 11.0 20.0 0.00 0.00 0.00 38 1007.5
20260505185341 81 241 8.0 19.0 0.00 0.00 0.00 38 1007.7
20260505184840 81 134 7.0 15.0 0.00 0.00 0.00 40 1007.5
20260505184336 81 335 2.0 15.0 0.00 0.00 0.00 41 1007.8
20260505183853 81 163 6.0 14.0 0.00 0.00 0.00 42 1007.7
20260505183410 81 243 6.0 16.0 0.00 0.00 0.00 41 1007.6
20260505182847 80 226 7.0 18.0 0.00 0.00 0.00 42 1007.7
20260505182342 81 255 7.0 18.0 0.00 0.00 0.00 40 1007.8
20260505181838 81 246 6.0 13.0 0.00 0.00 0.00 41 1007.8
20260505181356 81 241 3.0 15.0 0.00 0.00 0.00 42 1007.9
20260505180852 80 232 6.0 15.0 0.00 0.00 0.00 42 1008.0
20260505180346 80 240 7.0 15.0 0.00 0.00 0.00 41 1008.1
20260505175839 80 233 6.0 18.0 0.00 0.00 0.00 41 1008.2
20260505175356 80 143 5.0 18.0 0.00 0.00 0.00 43 1008.1
20260505174837 80 253 9.0 17.0 0.00 0.00 0.00 42 1008.1
20260505174410 80 232 5.0 17.0 0.00 0.00 0.00 43 1008.2
20260505173903 80 239 6.0 17.0 0.00 0.00 0.00 42 1008.2
20260505173343 80 267 5.0 13.0 0.00 0.00 0.00 43 1008.3
20260505172841 81 152 8.0 12.0 0.00 0.00 0.00 42 1008.3
20260505172337 80 226 7.0 18.0 0.00 0.00 0.00 41 1008.3
20260505171855 80 99 6.0 18.0 0.00 0.00 0.00 43 1008.2
20260505171411 80 243 5.0 15.0 0.00 0.00 0.00 43 1008.3
20260505170848 80 245 4.0 15.0 0.00 0.00 0.00 45 1008.4
20260505170343 80 239 5.0 16.0 0.00 0.00 0.00 45 1008.6
20260505165859 79 246 8.0 16.0 0.00 0.00 0.00 46 1008.6
20260505165355 79 221 2.0 12.0 0.00 0.00 0.00 46 1008.7
20260505164853 79 256 8.0 12.0 0.00 0.00 0.00 45 1008.8
20260505164408 79 249 4.0 14.0 0.00 0.00 0.00 47 1008.9
20260505163845 78 288 3.0 14.0 0.00 0.00 0.00 47 1009.0
20260505163341 79 284 8.0 13.0 0.00 0.00 0.00 46 1009.2
20260505162854 79 235 4.0 13.0 0.00 0.00 0.00 48 1009.1
20260505162411 78 264 3.0 13.0 0.00 0.00 0.00 48 1009.2
20260505161906 78 239 2.0 13.0 0.00 0.00 0.00 47 1009.1
20260505161342 78 243 7.0 15.0 0.00 0.00 0.00 47 1009.2
20260505160840 78 226 5.0 12.0 0.00 0.00 0.00 46 1009.2
20260505160356 77 270 3.0 12.0 0.00 0.00 0.00 49 1009.2
20260505153343 76 280 4.0 13.0 0.00 0.00 0.00 50 1009.4
20260505152838 76 225 4.0 13.0 0.00 0.00 0.00 51 1009.4
20260505152353 75 280 3.0 12.0 0.00 0.00 0.00 53 1009.4
20260505151850 75 255 6.0 12.0 0.00 0.00 0.00 50 1009.4
20260505151347 75 269 5.0 10.0 0.00 0.00 0.00 52 1009.5
20260505150903 75 242 4.0 8.0 0.00 0.00 0.00 51 1009.6
20260505150339 74 252 1.0 8.0 0.00 0.00 0.00 55 1009.6
20260505140338 70 217 3.0 7.0 0.00 0.00 0.00 60 1010.1
20260505124848 63 239 0.0 4.0 0.00 0.00 0.00 72 1010.8
20260505124343 62 233 0.0 4.0 0.00 0.00 0.00 73 1010.7
20260505123839 62 248 2.0 5.0 0.00 0.00 0.00 72 1010.7
20260505123355 61 236 2.0 5.0 0.00 0.00 0.00 73 1010.8
20260505122851 61 250 0.0 3.0 0.00 0.00 0.00 74 1010.7
20260505122351 61 250 0.0 3.0 0.00 0.00 0.00 74 1010.6
20260505121849 61 235 0.0 2.0 0.00 0.00 0.00 75 1010.5
20260505121347 60 236 0.0 1.0 0.00 0.00 0.00 76 1010.6
20260505120841 60 235 0.0 1.0 0.00 0.00 0.00 78 1010.6
20260505120338 60 235 0.0 1.0 0.00 0.00 0.00 76 1010.5
20260505115851 61 235 0.0 3.0 0.00 0.00 0.00 75 1010.4
20260505115349 61 235 0.0 3.0 0.00 0.00 0.00 75 1010.4
20260505114845 60 146 0.0 0.0 0.00 0.00 0.00 78 1010.3
20260505114340 60 146 0.0 0.0 0.00 0.00 0.00 78 1010.2
20260505113839 59 146 0.0 0.0 0.00 0.00 0.00 80 1010.2
20260505113337 58 147 0.0 0.0 0.00 0.00 0.00 81 1010.1
20260505112854 57 146 0.0 0.0 0.00 0.00 0.00 83 1010.0
20260505112351 56 147 0.0 0.0 0.00 0.00 0.00 86 1010.0
20260505111909 55 147 0.0 0.0 0.00 0.00 0.00 87 1010.1
20260505111345 54 147 0.0 0.0 0.00 0.00 0.00 91 1010.1
20260505110842 52 146 0.0 0.0 0.00 0.00 0.00 93 1010.3
20260505110338 51 146 0.0 0.0 0.00 0.00 0.00 93 1010.3
20260505101842 49 146 0.0 0.0 0.00 0.00 0.00 94 1009.6
20260505101337 49 146 0.0 0.0 0.00 0.00 0.00 94 1009.6
20260505100914 49 146 0.0 0.0 0.00 0.00 0.00 93 1009.4
20260505100349 49 146 0.0 0.0 0.00 0.00 0.00 93 1009.5
20260505095843 49 147 0.0 0.0 0.00 0.00 0.00 92 1009.5
20260505095339 50 146 0.0 0.0 0.00 0.00 0.00 91 1009.5
20260505094855 50 147 0.0 0.0 0.00 0.00 0.00 91 1009.5
20260505094353 50 146 0.0 0.0 0.00 0.00 0.00 91 1009.5
20260505093849 50 146 0.0 0.0 0.00 0.00 0.00 91 1009.4
20260505093350 50 147 0.0 0.0 0.00 0.00 0.00 90 1009.4
20260505092846 50 146 0.0 0.0 0.00 0.00 0.00 90 1009.5
20260505092343 50 147 0.0 0.0 0.00 0.00 0.00 90 1009.3
20260505091841 50 146 0.0 0.0 0.00 0.00 0.00 90 1009.3
20260505091356 50 146 0.0 0.0 0.00 0.00 0.00 89 1009.3
20260505090853 50 146 0.0 0.0 0.00 0.00 0.00 89 1009.3
20260505090351 51 147 0.0 0.0 0.00 0.00 0.00 88 1009.2
20260505085844 51 146 0.0 0.0 0.00 0.00 0.00 88 1009.2
20260505085342 51 147 0.0 0.0 0.00 0.00 0.00 88 1009.3
20260505084838 51 146 0.0 0.0 0.00 0.00 0.00 87 1009.2
20260505084353 51 146 0.0 0.0 0.00 0.00 0.00 87 1009.2
20260505083848 52 146 0.0 0.0 0.00 0.00 0.00 86 1009.1
20260505083345 52 146 0.0 0.0 0.00 0.00 0.00 86 1009.2
20260505082840 52 147 0.0 0.0 0.00 0.00 0.00 86 1009.1
20260505082336 52 147 0.0 0.0 0.00 0.00 0.00 86 1009.1
20260505081853 52 146 0.0 0.0 0.00 0.00 0.00 85 1009.1
20260505081351 52 146 0.0 0.0 0.00 0.00 0.00 85 1009.1
20260505080848 53 146 0.0 0.0 0.00 0.00 0.00 83 1009.1
20260505080348 53 146 0.0 0.0 0.00 0.00 0.00 83 1009.1
20260505075907 53 146 0.0 0.0 0.00 0.00 0.00 83 1009.1
20260505075342 53 146 0.0 0.0 0.00 0.00 0.00 83 1009.1
20260505074839 53 146 0.0 0.0 0.00 0.00 0.00 84 1009.0
20260505074357 53 147 0.0 0.0 0.00 0.00 0.00 84 1009.0
20260505073854 53 146 0.0 0.0 0.00 0.00 0.00 83 1009.0
20260505073412 53 146 0.0 0.0 0.00 0.00 0.00 84 1008.9
20260505072846 53 146 0.0 0.0 0.00 0.00 0.00 84 1008.9
20260505072342 53 146 0.0 0.0 0.00 0.00 0.00 85 1008.8
20260505071841 53 146 0.0 0.0 0.00 0.00 0.00 85 1008.9
20260505071417 53 147 0.0 0.0 0.00 0.00 0.00 85 1008.9
20260505070854 53 146 0.0 0.0 0.00 0.00 0.00 84 1008.8
20260505070412 54 146 0.0 0.0 0.00 0.00 0.00 83 1008.9
20260505065850 54 146 0.0 0.0 0.00 0.00 0.00 82 1008.9
20260505065348 54 146 0.0 0.0 0.00 0.00 0.00 81 1008.9
20260505064845 54 147 0.0 0.0 0.00 0.00 0.00 81 1009.0
20260505064343 54 147 0.0 0.0 0.00 0.00 0.00 81 1009.0
20260505063840 54 147 0.0 0.0 0.00 0.00 0.00 81 1009.1
20260505063337 54 146 0.0 0.0 0.00 0.00 0.00 81 1009.2
20260505062854 54 146 0.0 0.0 0.00 0.00 0.00 81 1009.3
20260505062353 54 146 0.0 0.0 0.00 0.00 0.00 81 1009.3
20260505061851 55 147 0.0 0.0 0.00 0.00 0.00 80 1009.3
20260505061352 55 146 0.0 0.0 0.00 0.00 0.00 78 1009.2
20260505060850 56 146 0.0 0.0 0.00 0.00 0.00 77 1009.3
20260505060347 57 146 0.0 0.0 0.00 0.00 0.00 74 1009.2
20260505055842 57 146 0.0 0.0 0.00 0.00 0.00 72 1009.2
20260505055340 57 146 0.0 0.0 0.00 0.00 0.00 73 1009.2
20260505054917 57 146 0.0 0.0 0.00 0.00 0.00 74 1009.2
20260505054353 56 147 0.0 0.0 0.00 0.00 0.00 74 1009.3
20260505053911 57 147 0.0 0.0 0.00 0.00 0.00 75 1009.3
20260505053345 57 147 0.0 0.0 0.00 0.00 0.00 73 1009.3
20260505052843 57 146 0.0 0.0 0.00 0.00 0.00 72 1009.2
20260505052341 57 146 0.0 0.0 0.00 0.00 0.00 71 1009.2
20260505051837 57 146 0.0 0.0 0.00 0.00 0.00 72 1009.2
20260505051354 57 147 0.0 0.0 0.00 0.00 0.00 72 1009.2
20260505050852 57 146 0.0 0.0 0.00 0.00 0.00 71 1009.2
20260505050348 58 147 0.0 0.0 0.00 0.00 0.00 69 1009.2
20260505041412 58 154 0.0 0.0 0.00 0.00 0.00 66 1009.0
20260505040848 58 156 0.0 0.0 0.00 0.00 0.00 66 1009.0
20260505040348 59 167 0.0 0.0 0.00 0.00 0.00 66 1009.0
20260505035842 58 167 0.0 1.0 0.00 0.00 0.00 66 1009.0
20260505035359 58 201 0.0 1.0 0.00 0.00 0.00 66 1008.8
20260505034854 58 243 0.0 1.0 0.00 0.00 0.00 66 1008.9
20260505034351 58 245 0.0 1.0 0.00 0.00 0.00 65 1009.0
20260505033848 58 245 0.0 1.0 0.00 0.00 0.00 65 1008.9
20260505033343 59 243 0.0 1.0 0.00 0.00 0.00 64 1008.8
20260505032917 59 245 0.0 0.0 0.00 0.00 0.00 64 1008.9
20260505032354 59 245 0.0 0.0 0.00 0.00 0.00 63 1008.8
20260505031911 59 245 0.0 0.0 0.00 0.00 0.00 62 1008.9
20260505031349 60 245 0.0 0.0 0.00 0.00 0.00 61 1008.9
20260505030904 60 245 0.0 0.0 0.00 0.00 0.00 61 1008.9
20260505030340 60 245 0.0 1.0 0.00 0.00 0.00 60 1008.9
20260505025916 60 243 0.0 1.0 0.00 0.00 0.00 60 1008.9
20260505025353 60 243 0.0 1.0 0.00 0.00 0.00 60 1008.8
20260505024849 60 245 0.0 1.0 0.00 0.00 0.00 60 1008.7
20260505024350 60 248 0.0 0.0 0.00 0.00 0.00 61 1008.6
20260505023846 60 248 0.0 0.0 0.00 0.00 0.00 60 1008.8
20260505023343 60 248 0.0 0.0 0.00 0.00 0.00 60 1008.7
20260505022840 60 248 0.0 0.0 0.00 0.00 0.00 60 1008.6
20260505022356 60 248 0.0 0.0 0.00 0.00 0.00 59 1008.6
20260505021852 61 248 0.0 1.0 0.00 0.00 0.00 59 1008.6
20260505021410 61 248 0.0 1.0 0.00 0.00 0.00 59 1008.8
20260505020847 61 250 0.0 1.0 0.00 0.00 0.00 58 1008.9
20260505020344 61 250 0.0 1.0 0.00 0.00 0.00 58 1008.9
20260505015838 61 250 0.0 1.0 0.00 0.00 0.00 58 1008.8
20260505015356 61 252 0.0 1.0 0.00 0.00 0.00 58 1008.9
20260505014913 62 250 0.0 1.0 0.00 0.00 0.00 57 1008.7
20260505014349 62 250 0.0 1.0 0.00 0.00 0.00 56 1008.7
20260505013906 63 256 0.0 2.0 0.00 0.00 0.00 56 1008.8
20260505013341 63 256 0.0 2.0 0.00 0.00 0.00 55 1008.8
20260505012853 63 248 1.0 3.0 0.00 0.00 0.00 55 1008.9
20260505012350 63 248 1.0 3.0 0.00 0.00 0.00 54 1008.8
20260505011845 63 249 0.0 4.0 0.00 0.00 0.00 55 1008.7
20260505011343 64 253 0.0 4.0 0.00 0.00 0.00 54 1008.6
20260505010901 64 313 0.0 1.0 0.00 0.00 0.00 54 1008.4
20260505010340 64 315 0.0 6.0 0.00 0.00 0.00 54 1008.3
20260505005855 64 215 1.0 6.0 0.00 0.00 0.00 53 1008.4
20260505005352 64 243 0.0 4.0 0.00 0.00 0.00 53 1008.3
20260505004910 65 243 2.0 4.0 0.00 0.00 0.00 52 1008.3
20260505004345 65 256 0.0 7.0 0.00 0.00 0.00 53 1008.3
20260505003843 65 256 0.0 7.0 0.00 0.00 0.00 53 1008.2
20260505003401 65 217 2.0 4.0 0.00 0.00 0.00 51 1008.2
20260505002855 65 255 0.0 3.0 0.00 0.00 0.00 52 1008.2
20260505002352 66 290 1.0 8.0 0.00 0.00 0.00 52 1008.0